| time (UTC) | temp C | wind direction | speed KPH | gust KPH | rain 1hr cm | rain 24hr cm | rain mn cm | humidity % | barometer mb |
| 20260906150052 | 28 | 104 | 0.0 | 3.2 | 0.00 | 0.00 | 0.00 | 75 | 1012.6 |
| 20260906144535 | 27 | 175 | 0.0 | 4.8 | 0.00 | 0.00 | 0.00 | 77 | 1012.6 |
| 20260906143034 | 27 | 128 | 1.6 | 4.8 | 0.00 | 0.00 | 0.00 | 80 | 1012.5 |
| 20260906141532 | 27 | 108 | 1.6 | 6.4 | 0.00 | 0.00 | 0.00 | 81 | 1012.5 |
| 20260906140036 | 26 | 123 | 0.0 | 0.0 | 0.00 | 0.00 | 0.00 | 83 | 1012.4 |
| 20260906134531 | 26 | 134 | 0.0 | 1.6 | 0.00 | 0.00 | 0.00 | 85 | 1012.3 |
| 20260906133029 | 25 | 169 | 0.0 | 0.0 | 0.00 | 0.00 | 0.00 | 86 | 1012.2 |
| 20260906131528 | 25 | 169 | 0.0 | 0.0 | 0.00 | 0.00 | 0.00 | 87 | 1011.9 |
| 20260906130038 | 25 | 169 | 0.0 | 0.0 | 0.00 | 0.00 | 0.00 | 88 | 1011.8 |
| 20260906124523 | 24 | 169 | 0.0 | 0.0 | 0.00 | 0.00 | 0.00 | 88 | 1011.5 |
| 20260906123034 | 24 | 169 | 0.0 | 0.0 | 0.00 | 0.00 | 0.00 | 87 | 1011.4 |
| 20260906121520 | 24 | 169 | 0.0 | 0.0 | 0.00 | 0.00 | 0.00 | 85 | 1011.1 |
| 20260906120018 | 24 | 169 | 0.0 | 0.0 | 0.00 | 0.00 | 0.00 | 85 | 1010.8 |
| 20260906114517 | 25 | 169 | 0.0 | 0.0 | 0.00 | 0.00 | 0.00 | 84 | 1010.4 |
| 20260906113015 | 25 | 169 | 0.0 | 0.0 | 0.00 | 0.00 | 0.00 | 84 | 1010.5 |
| 20260906111512 | 25 | 169 | 0.0 | 0.0 | 0.00 | 0.00 | 0.00 | 82 | 1010.4 |
| 20260906110010 | 25 | 169 | 0.0 | 0.0 | 0.00 | 0.00 | 0.00 | 81 | 1010.3 |
| 20260906104518 | 26 | 169 | 0.0 | 0.0 | 0.00 | 0.00 | 0.00 | 80 | 1010.3 |
| 20260906103020 | 26 | 169 | 0.0 | 0.0 | 0.00 | 0.00 | 0.00 | 80 | 1010.3 |
| 20260906101505 | 26 | 169 | 0.0 | 0.0 | 0.00 | 0.00 | 0.00 | 79 | 1010.1 |
| 20260906100009 | 26 | 169 | 0.0 | 0.0 | 0.00 | 0.00 | 0.00 | 78 | 1010.0 |
| 20260906094503 | 26 | 185 | 0.0 | 0.0 | 0.00 | 0.00 | 0.00 | 78 | 1010.0 |
| 20260906093100 | 26 | 182 | 0.0 | 0.0 | 0.00 | 0.00 | 0.00 | 77 | 1010.0 |
| 20260906091559 | 27 | 208 | 0.0 | 4.8 | 0.00 | 0.00 | 0.00 | 77 | 1009.9 |
| 20260906090058 | 27 | 192 | 0.0 | 4.8 | 0.00 | 0.00 | 0.00 | 77 | 1010.0 |
| 20260906084600 | 27 | 186 | 0.0 | 6.4 | 0.00 | 0.00 | 0.00 | 76 | 1010.0 |
| 20260906083055 | 27 | 231 | 0.0 | 8.0 | 0.00 | 0.00 | 0.00 | 76 | 1010.0 |
| 20260906081557 | 27 | 166 | 0.0 | 6.4 | 0.00 | 0.00 | 0.00 | 77 | 1010.0 |
| 20260906080056 | 27 | 139 | 1.6 | 8.0 | 0.00 | 0.00 | 0.00 | 76 | 1010.1 |
| 20260906074553 | 27 | 158 | 0.0 | 9.7 | 0.00 | 0.00 | 0.00 | 77 | 1010.2 |
| 20260906073148 | 27 | 155 | 1.6 | 8.0 | 0.00 | 0.00 | 0.00 | 77 | 1010.5 |
| 20260906071547 | 27 | 234 | 0.0 | 4.8 | 0.00 | 0.00 | 0.00 | 77 | 1010.5 |
| 20260906070045 | 27 | 166 | 1.6 | 8.0 | 0.00 | 0.00 | 0.00 | 76 | 1010.8 |
| 20260906064543 | 27 | 160 | 1.6 | 3.2 | 0.00 | 0.00 | 0.00 | 76 | 1010.9 |
| 20260906063046 | 27 | 156 | 0.0 | 6.4 | 0.00 | 0.00 | 0.00 | 75 | 1011.0 |
| 20260906061542 | 27 | 139 | 0.0 | 4.8 | 0.00 | 0.00 | 0.00 | 75 | 1010.8 |
| 20260906060040 | 27 | 142 | 1.6 | 4.8 | 0.00 | 0.00 | 0.00 | 75 | 1010.9 |
| 20260906054558 | 27 | 140 | 0.0 | 3.2 | 0.00 | 0.00 | 0.00 | 74 | 1011.1 |
| 20260906053037 | 27 | 129 | 0.0 | 8.0 | 0.00 | 0.00 | 0.00 | 73 | 1011.0 |
| 20260906051537 | 28 | 115 | 0.0 | 6.4 | 0.00 | 0.00 | 0.00 | 73 | 1011.1 |
| 20260906050039 | 28 | 144 | 1.6 | 8.0 | 0.00 | 0.00 | 0.00 | 73 | 1011.2 |
| 20260906044536 | 28 | 119 | 1.6 | 6.4 | 0.00 | 0.00 | 0.00 | 72 | 1011.4 |
| 20260906043033 | 28 | 121 | 3.2 | 12.9 | 0.00 | 0.00 | 0.00 | 71 | 1011.3 |
| 20260906041532 | 28 | 106 | 3.2 | 11.3 | 0.00 | 0.00 | 0.00 | 70 | 1011.2 |
| 20260906040044 | 28 | 110 | 1.6 | 8.0 | 0.00 | 0.00 | 0.00 | 68 | 1011.1 |
| 20260906034545 | 28 | 155 | 4.8 | 16.1 | 0.00 | 0.00 | 0.00 | 67 | 1011.1 |
| 20260906033031 | 29 | 95 | 6.4 | 12.9 | 0.00 | 0.00 | 0.00 | 66 | 1011.1 |
| 20260906031558 | 29 | 75 | 3.2 | 11.3 | 0.00 | 0.00 | 0.00 | 65 | 1011.0 |
| 20260906030029 | 30 | 101 | 3.2 | 9.7 | 0.00 | 0.00 | 0.00 | 62 | 1010.8 |
| 20260906024550 | 30 | 78 | 3.2 | 9.7 | 0.00 | 0.00 | 0.00 | 59 | 1010.5 |
| 20260906023027 | 30 | 116 | 3.2 | 14.5 | 0.00 | 0.00 | 0.00 | 57 | 1010.1 |
| 20260906021526 | 31 | 44 | 4.8 | 12.9 | 0.00 | 0.00 | 0.00 | 56 | 1009.8 |
| 20260906020028 | 31 | 148 | 9.7 | 22.5 | 0.00 | 0.00 | 0.00 | 55 | 1009.5 |
| 20260906014526 | 31 | 130 | 3.2 | 12.9 | 0.00 | 0.00 | 0.00 | 55 | 1009.2 |
| 20260906013024 | 32 | 86 | 6.4 | 16.1 | 0.00 | 0.00 | 0.00 | 53 | 1009.2 |
| 20260906011524 | 32 | 77 | 4.8 | 16.1 | 0.00 | 0.00 | 0.00 | 53 | 1008.9 |
| 20260906010040 | 32 | 103 | 4.8 | 12.9 | 0.00 | 0.00 | 0.00 | 52 | 1008.9 |
| 20260906004523 | 33 | 107 | 4.8 | 14.5 | 0.00 | 0.00 | 0.00 | 51 | 1008.9 |
| 20260906003022 | 33 | 115 | 6.4 | 16.1 | 0.00 | 0.00 | 0.00 | 50 | 1008.9 |
| 20260906001529 | 33 | 40 | 4.8 | 14.5 | 0.00 | 0.00 | 0.00 | 49 | 1008.8 |
| 20260906000022 | 34 | 140 | 4.8 | 16.1 | 0.00 | 0.00 | 0.00 | 47 | 1008.8 |
| 20260905234520 | 35 | 58 | 4.8 | 11.3 | 0.00 | 0.00 | 0.00 | 42 | 1008.6 |
| 20260905233019 | 35 | 112 | 8.0 | 14.5 | 0.00 | 0.00 | 0.00 | 39 | 1008.5 |
| 20260905231517 | 35 | 346 | 1.6 | 6.4 | 0.00 | 0.00 | 0.00 | 40 | 1008.5 |
| 20260905230030 | 36 | 141 | 3.2 | 14.5 | 0.00 | 0.00 | 0.00 | 39 | 1008.5 |
| 20260905224519 | 36 | 146 | 4.8 | 14.5 | 0.00 | 0.00 | 0.00 | 39 | 1008.5 |
| 20260905223017 | 36 | 315 | 0.0 | 11.3 | 0.00 | 0.00 | 0.00 | 39 | 1008.5 |
| 20260905221513 | 36 | 119 | 1.6 | 9.7 | 0.00 | 0.00 | 0.00 | 39 | 1008.6 |
| 20260905220012 | 36 | 80 | 1.6 | 9.7 | 0.00 | 0.00 | 0.00 | 41 | 1008.6 |
| 20260905214511 | 35 | 239 | 0.0 | 11.3 | 0.00 | 0.00 | 0.00 | 43 | 1008.7 |
| 20260905213009 | 35 | 198 | 1.6 | 9.7 | 0.00 | 0.00 | 0.00 | 42 | 1008.9 |
| 20260905211518 | 35 | 136 | 0.0 | 6.4 | 0.00 | 0.00 | 0.00 | 40 | 1009.1 |
| 20260905210005 | 36 | 91 | 3.2 | 12.9 | 0.00 | 0.00 | 0.00 | 39 | 1009.3 |
| 20260905204504 | 36 | 22 | 4.8 | 14.5 | 0.00 | 0.00 | 0.00 | 40 | 1009.4 |
| 20260905203118 | 36 | 206 | 3.2 | 11.3 | 0.00 | 0.00 | 0.00 | 41 | 1009.7 |
| 20260905201605 | 35 | 25 | 0.0 | 8.0 | 0.00 | 0.00 | 0.00 | 43 | 1009.9 |
| 20260905200058 | 35 | 121 | 0.0 | 11.3 | 0.00 | 0.00 | 0.00 | 43 | 1010.1 |
| 20260905194547 | 35 | 47 | 0.0 | 9.7 | 0.00 | 0.00 | 0.00 | 44 | 1010.3 |
| 20260905193043 | 36 | 121 | 4.8 | 11.3 | 0.00 | 0.00 | 0.00 | 42 | 1010.6 |
| 20260905191540 | 35 | 173 | 3.2 | 8.0 | 0.00 | 0.00 | 0.00 | 44 | 1010.9 |
| 20260905190037 | 35 | 186 | 3.2 | 14.5 | 0.00 | 0.00 | 0.00 | 45 | 1011.1 |
| 20260905184534 | 35 | 157 | 6.4 | 20.9 | 0.00 | 0.00 | 0.00 | 46 | 1011.4 |
| 20260905183036 | 35 | 223 | 1.6 | 11.3 | 0.00 | 0.00 | 0.00 | 47 | 1011.7 |
| 20260905181533 | 35 | 134 | 8.0 | 14.5 | 0.00 | 0.00 | 0.00 | 46 | 1011.9 |
| 20260905180030 | 35 | 347 | 1.6 | 11.3 | 0.00 | 0.00 | 0.00 | 48 | 1012.1 |
| 20260905174529 | 34 | 189 | 3.2 | 14.5 | 0.00 | 0.00 | 0.00 | 48 | 1012.4 |
| 20260905173049 | 34 | 148 | 4.8 | 11.3 | 0.00 | 0.00 | 0.00 | 50 | 1012.6 |
| 20260905171524 | 34 | 124 | 6.4 | 17.7 | 0.00 | 0.00 | 0.00 | 51 | 1012.7 |
| 20260905170019 | 33 | 80 | 1.6 | 14.5 | 0.00 | 0.00 | 0.00 | 53 | 1012.9 |
| 20260905164516 | 33 | 102 | 4.8 | 16.1 | 0.00 | 0.00 | 0.00 | 55 | 1013.0 |
| 20260905163014 | 32 | 155 | 6.4 | 16.1 | 0.00 | 0.00 | 0.00 | 55 | 1013.0 |
| 20260905161509 | 32 | 136 | 3.2 | 8.0 | 0.00 | 0.00 | 0.00 | 61 | 1013.1 |
| 20260905160006 | 31 | 173 | 3.2 | 8.0 | 0.00 | 0.00 | 0.00 | 63 | 1012.9 |
| 20260905154504 | 31 | 176 | 4.8 | 11.3 | 0.00 | 0.00 | 0.00 | 63 | 1012.9 |
| 20260905153100 | 31 | 169 | 4.8 | 11.3 | 0.00 | 0.00 | 0.00 | 67 | 1012.9 |
| 20260905151601 | 30 | 198 | 3.2 | 11.3 | 0.00 | 0.00 | 0.00 | 68 | 1012.9 |